TimeCST,TemperatureF,Dew PointF,Humidity,Sea Level PressureIn,VisibilityMPH,Wind Direction,Wind SpeedMPH,Gust SpeedMPH,PrecipitationIn,Events,Conditions,WindDirDegrees,DateUTC
12:53 AM,28.0,19.0,69,30.22,10.0,WNW,3.5,-,N/A,,Clear,290,2013-02-16 06:53:00
1:53 AM,27.0,19.9,75,30.21,10.0,WSW,3.5,-,N/A,,Clear,250,2013-02-16 07:53:00
2:53 AM,27.0,16.0,63,30.21,10.0,NW,8.1,-,N/A,,Clear,320,2013-02-16 08:53:00
3:53 AM,28.0,18.0,66,30.22,10.0,NW,11.5,-,N/A,,Overcast,320,2013-02-16 09:53:00
4:53 AM,27.0,17.1,66,30.23,10.0,North,10.4,-,N/A,,Clear,350,2013-02-16 10:53:00
5:53 AM,26.6,17.6,69,30.22,10.0,North,9.2,-,N/A,,Clear,350,2013-02-16 11:53:00
6:53 AM,25.0,17.1,72,30.25,10.0,North,8.1,-,N/A,,Clear,350,2013-02-16 12:53:00
7:53 AM,27.0,16.0,63,30.26,10.0,North,10.4,-,N/A,,Clear,360,2013-02-16 13:53:00
8:53 AM,28.9,14.0,54,30.27,10.0,NNW,11.5,-,N/A,,Clear,340,2013-02-16 14:53:00
9:53 AM,30.9,14.0,50,30.27,10.0,NNW,10.4,-,N/A,,Clear,340,2013-02-16 15:53:00
10:53 AM,33.1,12.9,43,30.28,10.0,NW,13.8,18.4,N/A,,Clear,310,2013-02-16 16:53:00
11:53 AM,35.1,12.9,40,30.26,10.0,NNW,12.7,20.7,N/A,,Clear,340,2013-02-16 17:53:00
12:53 PM,36.0,10.0,34,30.24,10.0,North,8.1,-,N/A,,Clear,350,2013-02-16 18:53:00
1:53 PM,37.0,7.0,29,30.22,10.0,NW,11.5,18.4,N/A,,Clear,320,2013-02-16 19:53:00
2:53 PM,37.9,7.0,28,30.21,10.0,NNW,9.2,20.7,N/A,,Clear,340,2013-02-16 20:53:00
3:53 PM,37.9,7.0,28,30.21,10.0,Variable,6.9,-,N/A,,Clear,0,2013-02-16 21:53:00
4:53 PM,37.0,6.1,28,30.20,10.0,NW,4.6,-,N/A,,Clear,320,2013-02-16 22:53:00
5:53 PM,33.1,10.0,38,30.21,10.0,Calm,Calm,-,N/A,,Clear,0,2013-02-16 23:53:00
6:53 PM,30.0,17.1,59,30.22,10.0,South,4.6,-,N/A,,Clear,180,2013-02-17 00:53:00
7:53 PM,26.1,15.1,63,30.22,10.0,Calm,Calm,-,N/A,,Clear,0,2013-02-17 01:53:00
8:53 PM,24.1,17.1,75,30.22,10.0,Calm,Calm,-,N/A,,Clear,0,2013-02-17 02:53:00
9:53 PM,24.1,17.1,75,30.23,10.0,Calm,Calm,-,N/A,,Clear,0,2013-02-17 03:53:00
10:53 PM,24.1,18.0,77,30.22,10.0,Calm,Calm,-,N/A,,Clear,0,2013-02-17 04:53:00
11:53 PM,23.0,18.0,81,30.22,10.0,Calm,Calm,-,N/A,,Clear,0,2013-02-17 05:53:00